User: anonymous   Login
Location: Felsheim
(48.7267°N, 10.7386°E)
Time: 17:55:45
(UTC+00:00)
Language:

H-2A R/B - Orbit

View from above orbital plane
View from above orbital plane
View from above satellite
View from above satellite

Ground track
Ground track

The orbit data is extracted from the following two-line orbital elements,

1 27601U 02056E   20184.69813490 +.00000037 +00000-0 +28216-4 0  9997
2 27601 098.2247 219.6863 0071139 231.6279 236.4369 14.31956418916872
Epoch (UTC): 02 July 2020 16:45:18
Eccentricity: 0.0071139
inclination: 98.2247°
perigee height: 734 km
apogee height: 836 km
right ascension of ascending node: 219.6863°
argument of perigee: 231.6279°
revolutions per day: 14.31956418
mean anomaly at epoch: 236.4369°
orbit number at epoch: 91687

The dashed part of the orbit path shows where the satellite is in the earth's shadow,  

DLR